Wind_Speed
38 38 37 37 37 37 37 38 38 38 38 38 39 39 38 37 36 36 35 35 36 36 36 37 37 37 37 37 37 37 37 36 36 36 37 37 36 37
37 37 37 36 36 36 37 37 38 38 37 36 37 37 37 36 35 34 33 33 34 35 35 36 36 37 36 37 38 37 36 36 36 36 35 35 35 36
37 36 36 35 35 34 35 35 36 37 36 35 35 35 35 34 34 33 32 32 33 33 35 36 36 36 36 36 37 37 37 36 35 35 35 35 35 35
37 36 36 36 35 34 34 34 35 35 36 35 34 34 33 33 33 33 33 33 33 33 35 35 35 35 35 35 36 37 37 35 35 35 34 33 33 33
35 36 36 35 35 34 34 33 34 34 35 34 32 32 33 33 34 34 33 32 32 32 33 33 34 35 36 36 35 36 36 34 34 33 32 32 33 32
34 34 34 34 34 34 33 33 33 33 33 33 32 32 33 34 33 33 32 32 32 32 32 33 34 35 35 35 35 34 33 32 32 31 31 32 32 32
34 34 33 34 33 33 33 32 33 32 33 33 32 33 32 32 32 32 32 32 32 33 32 33 33 33 34 33 33 32 31 30 30 30 31 32 32 31
34 33 33 33 32 32 32 32 32 32 32 32 32 32 32 32 32 32 33 32 32 33 33 32 33 32 31 31 30 30 29 28 29 30 31 31 30 29
33 33 32 31 31 31 31 32 32 32 32 32 31 32 32 33 32 33 33 32 32 32 32 31 31 31 30 29 28 28 28 27 28 29 28 27 27 27
32 32 31 31 31 31 31 31 31 31 31 31 31 32 33 32 32 31 31 31 30 30 29 29 29 28 28 26 26 26 26 26 26 26 25 25 26 26
32 31 31 31 30 31 31 31 30 29 30 31 32 31 31 31 30 29 29 29 29 28 28 28 28 27 26 24 24 25 24 24 25 25 25 25 25 25
31 32 31 31 30 30 31 30 29 29 30 30 31 30 29 29 28 27 27 27 27 26 27 27 26 25 23 22 22 23 23 22 23 24 24 24 25 25
29 30 30 29 29 29 30 29 29 29 29 29 29 28 28 27 26 26 26 25 25 25 25 24 23 23 22 20 20 21 22 22 22 23 23 23 23 22
28 28 28 28 28 28 29 29 28 28 28 28 27 26 26 26 26 25 24 24 24 24 23 22 21 21 20 20 19 20 21 21 21 21 21 20 20 19
25 26 26 27 27 27 28 28 27 27 26 26 26 25 25 25 25 24 23 22 22 22 21 21 20 20 20 20 20 19 20 20 21 20 19 18 18 17
24 24 24 25 26 27 27 27 27 26 25 25 25 24 24 24 24 23 21 21 20 20 20 19 19 19 19 19 19 19 19 19 19 19 18 17 16 15
22 22 23 25 25 25 26 25 25 25 25 24 23 23 23 22 22 20 19 19 19 19 18 18 18 19 19 19 19 19 19 18 17 17 16 16 15 15
20 21 22 23 24 24 25 24 24 24 23 23 22 21 21 20 20 19 18 18 19 19 18 18 17 18 18 18 19 18 17 16 15 15 15 15 14 13
21 21 22 22 22 23 23 23 23 23 22 21 21 20 20 19 19 18 18 18 19 19 19 18 17 16 17 17 17 17 15 15 15 14 14 14 14 13
21 21 22 22 23 23 22 22 22 21 21 21 21 20 19 19 19 18 17 18 18 18 18 18 17 17 16 16 16 16 16 15 15 14 13 13 13 12
20 20 21 21 22 22 22 21 20 20 20 20 20 19 19 19 19 18 18 18 18 17 18 18 17 17 17 16 15 15 15 15 13 13 12 12 11 11
19 20 20 21 21 20 19 19 19 19 19 18 18 18 18 18 18 17 17 17 17 17 16 16 16 17 16 16 14 14 13 13 13 12 12 11 11 11
18 18 18 17 17 17 17 17 18 17 17 17 17 17 17 17 17 17 16 16 15 16 15 15 15 15 15 15 14 13 13 12 12 11 11 11 11 11
Wind_Direction
272 273 272 272 270 270 269 269 270 271 272 274 276 278 278 276 275 275 273 273 274 274 276 278 278 278 278 278 277 276 274 276 277 278 279 280 280 280
270 271 271 271 270 270 270 270 271 272 274 275 275 276 276 275 275 274 272 274 276 277 276 277 278 279 280 279 277 275 273 275 277 278 280 281 281 281
269 270 271 270 270 271 270 271 272 273 274 276 276 275 274 274 275 275 274 275 276 278 277 276 277 280 280 280 278 274 273 275 277 278 281 281 281 282
269 270 270 269 268 269 271 273 274 275 277 276 275 274 273 274 275 276 275 277 278 278 277 277 277 279 280 281 279 275 274 276 278 281 281 280 281 283
270 271 271 270 269 270 271 273 274 276 276 275 275 274 272 274 275 276 276 276 278 279 279 278 280 282 283 283 282 277 275 276 278 280 281 281 281 281
271 271 270 270 270 270 272 273 274 274 274 275 273 273 274 275 277 276 276 275 278 280 279 279 281 283 284 283 281 277 275 276 278 280 281 281 280 280
271 271 269 270 271 272 272 273 272 272 274 273 272 275 275 277 277 277 276 276 278 280 280 281 282 283 285 284 281 276 274 275 278 280 282 282 282 282
270 270 269 268 270 273 273 272 271 271 272 273 273 274 276 277 277 277 278 277 278 280 280 281 282 283 285 284 280 277 275 275 278 279 280 281 282 282
268 268 267 266 270 271 272 272 271 270 271 273 274 275 276 277 277 278 278 279 280 282 281 283 285 285 286 284 281 278 276 276 276 278 279 280 282 284
267 267 266 267 269 272 272 272 271 270 270 272 273 275 275 275 277 278 278 280 282 283 284 285 285 286 287 284 281 278 278 277 277 280 280 280 282 285
265 263 263 265 269 270 271 272 271 269 270 271 273 275 274 276 276 277 278 279 281 283 284 284 285 284 284 281 281 280 279 280 279 280 281 283 284 286
263 262 262 265 268 269 270 270 270 270 270 271 273 274 273 274 276 276 277 279 282 284 284 284 284 283 280 280 282 283 283 282 282 282 282 285 287 287
264 262 263 264 265 267 267 269 270 269 270 271 273 272 272 273 275 277 279 281 283 285 286 285 284 282 279 282 285 285 284 284 284 283 283 286 287 288
265 263 263 262 262 264 266 268 269 269 270 271 272 272 273 274 276 278 280 282 285 286 284 283 283 281 281 285 285 285 285 286 286 286 286 286 286 289
265 264 262 262 262 263 264 266 268 268 268 270 270 271 273 274 276 277 280 284 284 282 282 282 283 283 283 284 284 283 284 285 287 288 289 288 289 290
266 266 265 263 262 263 264 265 265 265 265 268 269 271 273 274 275 278 280 282 282 281 281 283 283 284 282 282 282 281 283 285 286 286 286 288 289 288
271 268 266 265 263 264 263 263 265 264 264 265 267 269 271 271 273 274 276 278 279 277 276 279 281 283 282 280 281 281 282 283 283 284 286 287 286 286
273 270 267 266 264 264 264 265 264 262 261 261 264 268 269 269 272 272 274 275 277 277 276 278 277 278 276 276 279 281 280 280 283 283 285 286 286 284
272 271 269 267 264 265 265 264 262 260 258 259 262 266 269 271 273 273 274 275 277 277 277 276 277 277 276 276 276 276 278 280 281 283 283 282 283 283
273 271 270 267 264 265 264 263 262 259 258 260 262 265 269 270 271 271 273 275 277 277 276 275 274 275 277 277 275 276 278 281 281 282 283 280 281 281
270 269 269 267 264 264 263 262 259 257 257 260 262 265 267 269 271 272 274 275 277 279 279 274 273 274 274 274 276 277 277 281 282 283 283 279 278 279
268 269 268 266 264 262 262 259 258 258 257 259 262 263 264 266 267 270 273 275 277 279 279 276 273 272 268 267 272 276 277 280 282 283 283 280 276 274
268 267 266 263 260 258 258 257 256 258 257 259 262 263 261 261 264 268 271 273 276 278 277 276 273 269 265 265 266 272 277 278 277 275 274 275 274 274
Height
5627 5627 5627 5627 5627 5627 5627 5628 5629 5630 5632 5631 5629 5627 5625 5624 5624 5623 5623 5624 5624 5624 5624 5624 5623 5623 5622 5622 5621 5621 5621 5621 5621 5620 5620 5619 5618 5616
5617 5617 5617 5617 5617 5617 5617 5617 5618 5618 5620 5620 5619 5617 5616 5615 5614 5614 5614 5614 5614 5614 5614 5613 5613 5613 5612 5611 5610 5610 5610 5610 5610 5610 5609 5608 5607 5606
5608 5608 5608 5607 5608 5608 5608 5608 5608 5608 5608 5609 5608 5608 5607 5606 5606 5605 5605 5605 5605 5605 5604 5604 5603 5603 5602 5601 5599 5599 5599 5600 5599 5599 5598 5598 5597 5596
5598 5598 5598 5598 5599 5599 5599 5599 5599 5598 5598 5599 5599 5598 5598 5598 5597 5597 5597 5597 5597 5596 5595 5595 5594 5593 5592 5590 5589 5589 5589 5589 5589 5589 5588 5588 5587 5586
5589 5589 5589 5589 5590 5590 5590 5590 5590 5589 5589 5589 5589 5589 5590 5589 5589 5589 5589 5589 5588 5588 5587 5586 5585 5584 5583 5581 5580 5579 5579 5580 5580 5579 5579 5578 5578 5577
5579 5579 5579 5580 5581 5581 5581 5581 5581 5581 5581 5581 5581 5581 5581 5581 5580 5580 5580 5580 5580 5579 5578 5577 5576 5575 5573 5571 5570 5570 5570 5570 5570 5570 5570 5569 5568 5567
5569 5569 5570 5571 5572 5572 5573 5573 5572 5572 5573 5573 5573 5573 5573 5572 5572 5572 5572 5572 5571 5571 5570 5569 5568 5566 5564 5562 5560 5560 5560 5561 5561 5561 5560 5560 5559 5558
5560 5560 5560 5561 5562 5563 5563 5563 5563 5563 5564 5565 5565 5565 5565 5564 5564 5564 5564 5564 5564 5563 5561 5560 5559 5557 5555 5553 5552 5551 5551 5552 5552 5552 5552 5551 5550 5550
5549 5550 5551 5552 5553 5553 5554 5554 5554 5554 5555 5556 5556 5557 5557 5557 5557 5556 5556 5555 5555 5553 5552 5552 5550 5549 5547 5545 5544 5544 5543 5544 5544 5543 5543 5543 5542 5541
5539 5540 5541 5543 5544 5545 5545 5545 5546 5546 5547 5548 5548 5549 5548 5547 5547 5548 5547 5547 5546 5545 5544 5543 5542 5541 5539 5537 5536 5536 5536 5536 5536 5535 5535 5535 5534 5533
5529 5530 5532 5533 5535 5536 5536 5537 5538 5538 5538 5539 5539 5539 5539 5538 5538 5539 5539 5539 5539 5537 5536 5535 5534 5533 5532 5531 5530 5529 5529 5528 5528 5528 5528 5527 5526 5525
5520 5521 5522 5524 5525 5526 5528 5529 5529 5530 5531 5531 5530 5530 5530 5530 5530 5531 5531 5531 5530 5530 5528 5527 5526 5525 5526 5525 5524 5523 5522 5522 5522 5521 5520 5519 5518 5517
5510 5511 5513 5515 5516 5518 5519 5520 5521 5522 5522 5523 5523 5523 5523 5523 5523 5523 5523 5523 5522 5522 5521 5520 5519 5518 5518 5518 5518 5518 5517 5516 5516 5515 5514 5512 5511 5510
5502 5503 5504 5506 5507 5509 5510 5512 5513 5514 5514 5515 5515 5515 5516 5516 5516 5516 5516 5516 5515 5515 5514 5513 5513 5512 5512 5512 5512 5513 5512 5511 5510 5509 5507 5506 5504 5503
5494 5494 5495 5497 5499 5500 5502 5503 5504 5505 5506 5507 5508 5508 5509 5509 5510 5510 5510 5509 5509 5508 5508 5508 5507 5507 5506 5506 5507 5507 5507 5506 5504 5503 5501 5500 5499 5498
5486 5487 5488 5489 5491 5493 5494 5495 5497 5498 5499 5500 5501 5502 5503 5503 5503 5504 5504 5503 5503 5503 5503 5503 5502 5502 5502 5501 5501 5501 5501 5500 5499 5498 5497 5496 5495 5494
5480 5480 5481 5482 5484 5485 5487 5488 5490 5491 5492 5494 5495 5496 5496 5497 5497 5498 5498 5498 5498 5498 5498 5498 5497 5497 5497 5496 5496 5496 5496 5495 5494 5494 5493 5492 5491 5490
5474 5475 5475 5476 5478 5479 5480 5482 5483 5484 5486 5487 5489 5490 5491 5491 5492 5492 5492 5492 5492 5492 5492 5492 5493 5493 5493 5492 5492 5492 5491 5491 5490 5490 5489 5488 5487 5486
5469 5469 5470 5471 5472 5473 5474 5476 5477 5478 5480 5482 5483 5484 5485 5485 5486 5487 5487 5487 5487 5487 5487 5487 5488 5488 5488 5488 5487 5487 5487 5486 5486 5485 5485 5484 5484 5483
5463 5464 5464 5465 5466 5467 5468 5469 5471 5473 5474 5476 5477 5478 5479 5480 5481 5481 5482 5482 5482 5482 5482 5482 5483 5483 5483 5483 5483 5483 5482 5482 5482 5482 5481 5481 5480 5479
5458 5459 5459 5459 5460 5461 5462 5463 5465 5467 5469 5470 5471 5472 5473 5475 5475 5476 5477 5477 5477 5477 5477 5478 5477 5478 5478 5479 5479 5478 5478 5478 5477 5477 5477 5477 5477 5476
5453 5453 5453 5454 5454 5455 5456 5458 5459 5461 5463 5465 5466 5467 5468 5469 5470 5471 5471 5472 5472 5472 5472 5472 5473 5473 5473 5474 5474 5474 5474 5474 5473 5473 5473 5473 5473 5473
5447 5448 5448 5448 5449 5450 5451 5453 5455 5456 5458 5459 5460 5462 5463 5464 5465 5466 5466 5466 5467 5467 5467 5468 5468 5468 5469 5469 5470 5470 5470 5470 5470 5470 5470 5469 5469 5469